Home > Weather > Sumqayit > Past weeks

Flag for Azerbaijan Past Weather in Sumqayit, Azerbaijan — Yesterday and Last 2 Weeks

Now
88 °F

Sunny.


Feels Like: 88 °F
Forecast: 67 / 89 °F
Wind: 13 mph from Northeast

Location: Baku / Bine Airport

Current Time: Jun 26, 2016 at 2:06:16 PM

Latest Report: Jun 26, 2016 at 1:30 PM


Visibility: 10 mi

Pressure: 30.01 "Hg

Humidity: 40%

Dew Point: 61 °F

Location of SumqayitLocation

Past Weather in Sumqayit — Graph

°F

Sumqayit Temperature Yesterday

Maximum temperature yesterday: 82 °F (at 11:00 AM)
Minimum temperature yesterday: 70 °F (at 2:00 AM)
Average temperature yesterday: 77 °F

High & Low Weather Summary for the Past Weeks

 TemperatureHumidityPressure
High97 °F (Jun 24, 11:30 AM)100% (Jun 15, 3:00 AM)30.07 "Hg (Jun 15, 3:00 AM)
Low61 °F (Jun 13, 2:30 AM)19% (Jun 24, 10:30 AM)29.68 "Hg (Jun 16, 2:30 AM)
Average77 °F63%29.94 "Hg
* Reported Jun 11 1:00 PM — Jun 26 1:00 PM, Sumqayit, Weather by CustomWeather, © 2016

Note: Actual official high and low records may vary slightly from our data, if they occured in-between our weather recording intervals... More about our weather records

Advertising

Sumqayit Weather History for the Previous 24 Hours

Scroll right to see more
 ConditionsComfort  
Time TempWeatherWind HumidityBarometerVisibility
1:00 PM
Sun, Jun 26
88 °FSunny.14 mph40%30.01 "Hg10 mi
12:30 PM88 °FSunny.14 mph43%30.01 "Hg10 mi
12:00 PM88 °FSunny.13 mph46%30.01 "Hg10 mi
11:30 AM88 °FSunny.13 mph46%30.01 "Hg10 mi
11:00 AM86 °FSunny.13 mph52%30.01 "Hg10 mi
10:30 AM86 °FSunny.14 mph52%30.01 "Hg10 mi
10:00 AM84 °FSunny.16 mph62%30.01 "Hg10 mi
9:30 AM84 °FSunny.17 mph62%30.01 "Hg10 mi
9:00 AM82 °FSunny.17 mph62%30.01 "Hg10 mi
8:30 AM81 °FSunny.18 mph70%30.01 "Hg10 mi
8:00 AM81 °FSunny.18 mph66%30.01 "Hg10 mi
7:30 AM81 °FSunny.17 mph70%29.98 "Hg10 mi
7:00 AM77 °FSunny.17 mph79%29.98 "Hg10 mi
6:30 AM77 °FSunny.13 mph79%29.98 "Hg10 mi
6:00 AM75 °FSunny.14 mph83%29.98 "Hg10 mi
5:30 AM75 °FSunny.14 mph83%29.98 "Hg10 mi
5:00 AM75 °FClear.15 mph78%29.98 "Hg10 mi
4:30 AM75 °FPassing clouds.13 mph78%29.98 "HgN/A
4:00 AM75 °FPassing clouds.13 mph78%29.98 "HgN/A
3:30 AM75 °FPassing clouds.14 mph83%29.95 "HgN/A
3:00 AM77 °FPassing clouds.13 mph74%29.95 "HgN/A
2:30 AM75 °FPassing clouds.14 mph83%29.95 "HgN/A
2:00 AM77 °FPassing clouds.14 mph74%29.95 "HgN/A
1:30 AM77 °FPassing clouds.15 mph74%29.95 "HgN/A
1:00 AM77 °FClear.15 mph74%29.95 "Hg10 mi
12:30 AM77 °FClear.15 mph69%29.95 "Hg10 mi
12:00 AM75 °FClear.14 mph78%29.95 "Hg10 mi
11:30 PM
Sat, Jun 25
75 °FClear.16 mph83%29.95 "Hg10 mi
11:00 PM75 °FClear.16 mph83%29.95 "Hg10 mi
10:30 PM77 °FPassing clouds.16 mph79%29.95 "HgN/A
10:00 PM77 °FPassing clouds.15 mph79%29.95 "HgN/A
9:30 PM77 °FPassing clouds.16 mph79%29.95 "HgN/A
9:00 PM77 °FPassing clouds.17 mph79%29.95 "HgN/A
8:30 PM77 °FPartly cloudy.15 mph79%29.92 "HgN/A
8:00 PM77 °FBroken clouds.21 mph79%29.92 "HgN/A
7:30 PM77 °FSprinkles. Partly sunny.16 mph79%29.92 "HgN/A
7:00 PM77 °FPartly sunny.12 mph79%29.92 "HgN/A
6:30 PM77 °FPartly sunny.12 mph79%29.92 "HgN/A
6:00 PM77 °FPartly sunny.12 mph83%29.92 "HgN/A
5:30 PM77 °FPartly sunny.13 mph83%29.92 "HgN/A
5:00 PM79 °FOvercast.14 mph79%29.92 "HgN/A
4:30 PM81 °FOvercast.15 mph79%29.92 "HgN/A
4:00 PM79 °FOvercast.13 mph84%29.95 "HgN/A
3:30 PM77 °FSprinkles. More clouds than sun.13 mph89%29.95 "HgN/A
3:00 PM77 °FSprinkles. More clouds than sun.12 mph89%29.95 "HgN/A
2:30 PM79 °FSprinkles. More clouds than sun.13 mph79%29.98 "HgN/A
2:00 PM79 °FSprinkles. More clouds than sun.12 mph79%29.95 "HgN/A
Weather by CustomWeather, © 2016

See weather overviewHow to use our weather pages